Location: Wald
(31.7579°N, 86.6655°W)
Time: 20:10:55
(UTC+00:00)

Cosmos 1975 Rocket - Pass Details

Date: 14 July 2020
Orbit: 605 x 633 km, 82.5° (Epoch: 13 August)

Event Time Altitude Azimuth Distance (km) Brightness Sun altitude
Rises 10:05:32 0° 341° (NNW) 2,908 6.7 -9.4°
Reaches altitude 10° 10:07:56 10° 332° (NNW) 2,002 5.7 -8.9°
Maximum altitude 10:11:53 32° 269° (W) 1,079 3.9 -8.2°
Drops below altitude 10° 10:15:49 10° 206° (SSW) 2,002 5.2 -7.5°
Enters shadow 10:18:12 - 197° (SSW) 2,894 6.1 -7.1°
